FENGYUN 1C DEB, 29847

Orbit data source: Space-Track

FENGYUN 1C DEB, 29847 is space debris in SSO originally from a launch on Mon, 10 May 1999 UTC launched from the Taiyaun Space Center, China (TSC). Fengyun 1C debris stems from the Chinese weather satellite Fengyun-1C, which was intentionally destroyed by a Chinese anti-satellite missile in 2007. This event dramatically increased the amount of space debris, with thousands of trackable fragments posing hazards to satellites and human spaceflight. The Fengyun 1C debris cloud has become a focal point in discussions about space sustainability and the need for international regulations to prevent the creation of new debris.

Loading next visibility...
Identifier
29847, 1999-025ER
Orbit
SSO
Country
Flag of CNCN / PRC
Related business
Manufacturer
Unknown
Mission
Spacecraft
Bus & Motor
Unknown
Mass
Unknown
Launch date (UTC)
1999-05-10 (27 years ago)
Launch vehicle
Unknown
Launch site
Taiyaun Space Center, China (TSC)
Object type
Payload
Rocket body
Debris
Shape & HBR
Unknown shape, 0.1 m
Radar Cross Section
Medium (>0.1 m² and <1 m²)

Expand to show TLE details & history
Last TLE update: 12 hours ago

TLE from 12 hours ago
0 FENGYUN 1C DEB
1 29847U 99025ER  26238.46332723  .00000163  00000-0  12826-3 0  9998
2 29847  98.9156 234.0298 0085471  43.9240  84.6130 14.03159979  3367
Epoch: 2026-08-26T11:07Z
TLE epoch observation values (Epoch: 2026-08-26T11:07:11.472Z)
Latitude
49.75407°
Longitude
-76.86012°
Altitude
885.425 km
Speed
7.417 km/s
True Right ascension
04h 18m 36s
True Declination
49° 35' 15"
Sunlit
Object was in daylight at epoch
Visualization orbit readout
Latitude
Unknown
Longitude
Unknown
Altitude
Unknown
Speed
Unknown
Apparent Right ascension
Unknown
Apparent Declination
Unknown
Sunlit
N/A
Visualization observer readout
Local Sidereal Time
14:41:18
Azimuth
Unknown
Elevation
Unknown
Doppler factor
Unknown
Orbital elements
Apogee altitude
942.101 km
Perigee altitude
818.027 km
Semi-major axis
7,258.201 km
Eccentricity
0.00855
Inclination
98.9156°
RAAN
234.0298°
Arg. of periapsis
43.924°
True anomaly
85.58903°
Mean anomaly
84.613°
Eccentric anomaly
85.10092°
Mean motion
3.50994 °/min
Orbital period
102.57 mins
BSTAR
0.00012826
Loading maneuver chart data...
Computing Atmospheric mass density...

Documentation

Showing up to 5 results
|